Погода в Скобелевке

Россия / Пермский край     58°13′55″N   56°17′29″E
темп.,
°C
ветер,
м/с
пор.,
м/с
влажн.,
%
обл.,
%
осадки,
мм/ч
давл.,
гПа
погр.,
м
26 февраля, пт
пт2623:00−24ююв129948 0.0 102820
02:00−26юв229863 0.0 102719
05:00−26юв229569 0.0 102728
08:00−27юв249678 0.0 102681
11:00−22ююв379046 0.0 1026263
14:00−17ююв37829 0.0 1024426
17:00−16ююв488736 0.0 1022500
20:00−20юв389487 0.0 1020189
27 февраля, сб
сб2723:00−19юв3109285 0.0 1019222
02:00−20юв3109215 0.0 1017208
05:00−20юв4119423 0.0 1015266
08:00−21вюв4119377 0.0 1013271
11:00−19вюв498788 0.0 1011328
14:00−15вюв5986100 0.0 1009462
17:00−14в5988100 0.1 1009635
20:00−15вюв51091100 0.2 1010619
28 февраля, вс
вс2823:00−18вюв41091100 0.3 1011524
02:00−19в4991100 0.0 1010489
05:00−20всв399499 0.1 1011376
08:00−20всв399595 0.0 1010363
11:00−18всв488995 0.0 1011448
14:00−15всв4787100 0.0 1011518
17:00−14всв4788100 0.1 1012590
20:00−16всв399598 0.1 1013360
1 марта, пн
пн123:00−20всв379685 0.1 1015183
02:00−22св24950 0.0 101691
05:00−24св23930 0.0 101852
08:00−24ссв12920 0.0 101920
11:00−19с23860 0.0 1019246
14:00−14ссз238255 0.0 1019408
17:00−13сз128570 0.0 1018365
20:00−18з119725 0.0 101920
2 марта, вт
вт223:00−19ююз229713 0.0 101822
02:00−19ююз3710051 0.0 1016144
05:00−18ююз4119775 0.0 1014275
08:00−17ююз51292100 0.0 1011370
11:00−14ююз51193100 0.2 1009449
14:00−12юз51092100 0.6 1008548
17:00−11юз4992100 1.1 1006591
20:00−12ююз4994100 0.6 1005512